Location: Caracas
(10.5033°N, 66.8422°W)
Time: 19:50:13
(UTC-04:00)

N. Korean satellite - Pass Details

Date: 19 November 2017
Orbit: 461 x 513 km, 97.2° (Epoch: 11 December)

Event Time Altitude Azimuth Distance (km) Brightness Sun altitude
Rises 19:14:17 0° 188° (S) 2,473 10.5 -17.8°
Reaches altitude 10° 19:16:31 10° 201° (SSW) 1,600 9.7 -18.4°
Maximum altitude 19:19:28 27° 260° (W) 921 8.7 -19.1°
Drops below altitude 10° 19:22:26 10° 320° (NW) 1,610 9.5 -19.7°
Sets 19:24:42 0° 333° (NNW) 2,492 10.3 -20.3°
